DLH11P KLAX-EDDM

Flight info

Callsign DLH11P
Flight time N/A
Altitude 30000
Route LADYJ4 CSTRO DCT CANDA DCT BAM DCT KU72K DCT KU90M DCT KU12O DCT ITREK Q827 YTH DCT 59N090W 62N080W DCT BEZED DCT AYROU/M078F300 DCT EPMAN DCT 68N050W 6830N04000W 68N030W 67N020W 65N010W DCT GUNPA/N0440F300 DCT KARLI DCT KUGAL DCT SODRO T703 LULAR T105 LANDU LULAR2C
Aircraft A388/J-SADE2E3FGHIJ3J4J5M1RWXY/LB1D1

Departure

Time 2026-04-20 23:31
Airport Los Angeles International Airport (KLAX)

Arrival

Time N/A
Airport Munich Airport (EDDM)
Time Latitude Longitude Altitude Speed Heading
2026-04-20 22:42 33.94522 -118.41153 101 ft 0 kts 96°
2026-04-20 23:21 33.94522 -118.41154 125 ft 1 kts 96°
2026-04-20 23:21 33.94525 -118.41184 99 ft 4 kts 97°
2026-04-20 23:21 33.94526 -118.41216 97 ft 4 kts 83°
2026-04-20 23:22 33.94519 -118.41245 96 ft 4 kts 48°
2026-04-20 23:22 33.94504 -118.41256 98 ft 1 kts 353°
2026-04-20 23:22 33.94516 -118.41258 96 ft 4 kts 353°
2026-04-20 23:22 33.94543 -118.41262 100 ft 4 kts 353°
2026-04-20 23:23 33.94566 -118.41265 99 ft 1 kts 353°
2026-04-20 23:23 33.94567 -118.41265 99 ft 1 kts 353°
2026-04-20 23:26 33.94580 -118.41267 100 ft 4 kts 353°
2026-04-20 23:26 33.94631 -118.41274 100 ft 12 kts 353°
2026-04-20 23:26 33.94713 -118.41286 100 ft 12 kts 354°
2026-04-20 23:27 33.94776 -118.41256 101 ft 9 kts 53°
2026-04-20 23:27 33.94799 -118.41177 100 ft 12 kts 78°
2026-04-20 23:27 33.94813 -118.41070 100 ft 14 kts 83°
2026-04-20 23:27 33.94827 -118.40942 102 ft 17 kts 83°
2026-04-20 23:28 33.94843 -118.40788 99 ft 20 kts 83°
2026-04-20 23:28 33.94862 -118.40610 102 ft 23 kts 83°
2026-04-20 23:28 33.94883 -118.40407 99 ft 26 kts 83°
2026-04-20 23:28 33.94906 -118.40188 101 ft 27 kts 83°
2026-04-20 23:29 33.94924 -118.40021 98 ft 18 kts 83°
2026-04-20 23:29 33.94939 -118.39948 100 ft 5 kts 50°
2026-04-20 23:29 33.94967 -118.39927 101 ft 6 kts 14°
2026-04-20 23:29 33.95005 -118.39928 100 ft 5 kts 333°
2026-04-20 23:30 33.95026 -118.39953 99 ft 3 kts 292°
2026-04-20 23:30 33.95031 -118.39976 99 ft 2 kts 279°
2026-04-20 23:30 33.95033 -118.39994 99 ft 5 kts 270°
2026-04-20 23:30 33.95013 -118.40233 104 ft 63 kts 262°
2026-04-20 23:31 33.94930 -118.41012 102 ft 121 kts 263°
2026-04-20 23:31 33.94810 -118.42156 157 ft 151 kts 262°
2026-04-20 23:31 33.94673 -118.43379 674 ft 145 kts 261°
2026-04-20 23:31 33.94513 -118.44643 1011 ft 159 kts 262°
2026-04-20 23:32 33.94369 -118.45957 1501 ft 158 kts 262°
2026-04-20 23:32 33.94247 -118.47287 1948 ft 160 kts 264°
2026-04-20 23:32 33.94183 -118.48658 2120 ft 171 kts 268°
2026-04-20 23:32 33.94176 -118.50155 2180 ft 185 kts 268°
2026-04-20 23:33 33.94125 -118.51740 2233 ft 197 kts 264°
2026-04-20 23:33 33.94009 -118.53458 2469 ft 214 kts 264°
2026-04-20 23:33 33.93866 -118.55356 2611 ft 238 kts 264°
2026-04-20 23:33 33.93705 -118.57433 2875 ft 257 kts 264°
2026-04-20 23:34 33.93536 -118.59597 3474 ft 261 kts 263°
2026-04-20 23:34 33.93498 -118.61788 4046 ft 266 kts 279°
2026-04-20 23:34 33.94238 -118.63834 4678 ft 273 kts 306°
2026-04-20 23:34 33.95684 -118.65346 5249 ft 278 kts 327°